Location: Boiro
(42.6475°N, 8.8834°W)
Time: 22:56:52
(UTC+01:00)

A-11 Canister half - Pass Details

Date: 03 December 2021
Orbit: 1516 x 1684 km, 47.2° (Epoch: 18 January)

Event Time Altitude Azimuth Distance (km) Brightness Sun altitude
Rises 06:30:19 0° 187° (S) 4,711 11.6 -24.7°
Reaches altitude 10° 06:34:14 10° 173° (S) 3,757 11.2 -23.9°
Maximum altitude 06:41:03 22° 127° (SE) 2,946 11.1 -22.7°
Drops below altitude 10° 06:48:01 10° 81° (E) 3,866 12.1 -21.5°
Sets 06:52:04 0° 67° (ENE) 4,883 12.5 -20.7°
